Location: Edoum�
(0.9447°N, 10.6482°E)
Time: 21:40:57
(UTC+00:00)

ARIANE 5 R/B - Pass Details

Date: 07 June 2020
Orbit: 283 x 31944 km, 1.4° (Epoch: 10 July)

Event Time Altitude Azimuth Distance (km) Brightness Sun altitude
Rises 19:54:36 0° 269° (W) 15,739 9.9 -35.5°
Reaches altitude 10° 20:09:15 10° 269° (W) 17,919 10.0 -38.7°
Drops below altitude 10° 00:56:14 10° 271° (W) 34,901 10.6 -56.0°
Maximum altitude 04:14:17 86° 182° (S) 1,375 3.7 -13.9°
Sets 04:19:50 0° 93° (E) 2,678 6.6 -12.6°
